• In Netherlands
  • List of Countries
  • For 7 days
  • Water Temperature
  • Satellite Maps
  • Weather Map
  • Weather Widgets
  • user-avatar
    Login

    Hourly Weather Oran

    Today, 29 April, Saturday

    Time Temperature Precipitation Wind Pressure Humidity
    00:00 +15°C° 0 mm 4 mps 749 mmHg 92%
    01:00 +14°C° 0 mm 4 mps 749 mmHg 93%
    02:00 +14°C° 0 mm 3 mps 749 mmHg 93%
    03:00 +13°C° 0 mm 3 mps 749 mmHg 94%
    04:00 +14°C° 0 mm 3 mps 749 mmHg 93%
    05:00 +15°C° 0 mm 2 mps 749 mmHg 93%
    06:00 +17°C° 0 mm 2 mps 749 mmHg 86%
    07:00 +18°C° 0 mm 2 mps 749 mmHg 77%
    08:00 +20°C° 0 mm 2 mps 749 mmHg 68%
    09:00 +22°C° 0 mm 3 mps 750 mmHg 59%
    10:00 +24°C° 0 mm 3 mps 749 mmHg 54%
    11:00 +25°C° 0 mm 3 mps 749 mmHg 49%
    12:00 +26°C° 0 mm 4 mps 749 mmHg 44%
    13:00 +26°C° 0 mm 4 mps 749 mmHg 44%
    14:00 +26°C° 0 mm 4 mps 749 mmHg 43%
    15:00 +26°C° 0 mm 4 mps 749 mmHg 43%
    16:00 +25°C° 0 mm 4 mps 749 mmHg 48%
    17:00 +24°C° 0 mm 3 mps 749 mmHg 53%
    18:00 +21°C° 0 mm 3 mps 749 mmHg 58%
    19:00 +20°C° 0 mm 2 mps 749 mmHg 66%
    20:00 +18°C° 0 mm 2 mps 749 mmHg 74%
    21:00 +18°C° 0 mm 1 mps 750 mmHg 82%
    22:00 +18°C° 0 mm 1 mps 750 mmHg 83%
    23:00 +16°C° 0 mm 1 mps 750 mmHg 83%

    Tomorrow, 30 April, Sunday

    Time Temperature Precipitation Wind Pressure Humidity
    00:00 +16°C° 0 mm 1 mps 750 mmHg 84%
    01:00 +16°C° 0 mm 1 mps 750 mmHg 85%
    02:00 +16°C° 0 mm 2 mps 750 mmHg 87%
    03:00 +15°C° 0 mm 2 mps 750 mmHg 89%
    04:00 +16°C° 0 mm 2 mps 750 mmHg 88%
    05:00 +16°C° 0 mm 2 mps 750 mmHg 87%
    06:00 +16°C° 0 mm 2 mps 751 mmHg 86%
    07:00 +18°C° 0 mm 3 mps 751 mmHg 77%
    08:00 +20°C° 0 mm 3 mps 751 mmHg 68%
    09:00 +22°C° 0 mm 4 mps 751 mmHg 58%
    10:00 +23°C° 0 mm 5 mps 751 mmHg 57%
    11:00 +23°C° 0 mm 6 mps 751 mmHg 55%
    12:00 +24°C° 0 mm 6 mps 751 mmHg 53%
    13:00 +24°C° 0 mm 7 mps 751 mmHg 53%
    14:00 +23°C° 0 mm 7 mps 751 mmHg 53%
    15:00 +23°C° 0 mm 7 mps 750 mmHg 54%
    16:00 +22°C° 0 mm 7 mps 750 mmHg 57%
    17:00 +21°C° 0 mm 7 mps 750 mmHg 60%
    18:00 +20°C° 0 mm 6 mps 750 mmHg 63%
    19:00 +17°C° 0 mm 6 mps 751 mmHg 70%
    20:00 +16°C° 0 mm 6 mps 751 mmHg 76%
    21:00 +15°C° 0 mm 5 mps 752 mmHg 82%
    22:00 +15°C° 0 mm 5 mps 752 mmHg 82%
    23:00 +15°C° 0 mm 5 mps 752 mmHg 82%

    Day after tomorrow, 1 May, Monday

    Time Temperature Precipitation Wind Pressure Humidity
    00:00 +15°C° 0 mm 5 mps 752 mmHg 81%
    01:00 +15°C° 0 mm 5 mps 752 mmHg 81%
    02:00 +14°C° 0 mm 5 mps 752 mmHg 82%
    03:00 +14°C° 0 mm 5 mps 752 mmHg 82%
    04:00 +14°C° 0 mm 5 mps 753 mmHg 80%
    05:00 +15°C° 0 mm 4 mps 753 mmHg 79%
    06:00 +15°C° 0 mm 4 mps 753 mmHg 77%
    07:00 +18°C° 0 mm 4 mps 753 mmHg 69%
    08:00 +20°C° 0 mm 4 mps 754 mmHg 62%
    09:00 +22°C° 0 mm 4 mps 754 mmHg 54%
    10:00 +23°C° 0 mm 4 mps 754 mmHg 52%
    11:00 +23°C° 0 mm 4 mps 754 mmHg 50%
    12:00 +25°C° 0 mm 4 mps 754 mmHg 48%
    13:00 +25°C° 0 mm 4 mps 754 mmHg 48%
    14:00 +25°C° 0 mm 3 mps 753 mmHg 48%
    15:00 +25°C° 0 mm 3 mps 753 mmHg 48%
    16:00 +24°C° 0 mm 3 mps 753 mmHg 52%
    17:00 +22°C° 0 mm 3 mps 753 mmHg 56%
    18:00 +21°C° 0 mm 3 mps 753 mmHg 60%
    19:00 +19°C° 0 mm 3 mps 753 mmHg 69%
    20:00 +18°C° 0 mm 3 mps 754 mmHg 78%
    21:00 +16°C° 0 mm 2 mps 754 mmHg 87%
    22:00 +15°C° 0 mm 2 mps 754 mmHg 88%
    23:00 +15°C° 0 mm 2 mps 754 mmHg 89%

    2 May, Tuesday

    Time Temperature Precipitation Wind Pressure Humidity
    00:00 +15°C° 0 mm 2 mps 754 mmHg 89%
    01:00 +14°C° 0 mm 2 mps 753 mmHg 89%
    02:00 +14°C° 0 mm 2 mps 753 mmHg 90%
    03:00 +14°C° 0 mm 2 mps 753 mmHg 90%
    04:00 +15°C° 0 mm 2 mps 753 mmHg 88%
    05:00 +15°C° 0 mm 2 mps 753 mmHg 87%
    06:00 +16°C° 0 mm 2 mps 753 mmHg 85%
    07:00 +19°C° 0 mm 2 mps 753 mmHg 73%
    08:00 +21°C° 0 mm 2 mps 753 mmHg 61%
    09:00 +25°C° 0 mm 2 mps 753 mmHg 49%
    10:00 +26°C° 0 mm 3 mps 753 mmHg 45%
    11:00 +28°C° 0 mm 4 mps 753 mmHg 41%
    12:00 +29°C° 0 mm 5 mps 752 mmHg 36%
    13:00 +29°C° 0 mm 5 mps 752 mmHg 37%
    14:00 +29°C° 0 mm 5 mps 751 mmHg 37%
    15:00 +29°C° 0 mm 6 mps 751 mmHg 37%
    16:00 +28°C° 0 mm 5 mps 751 mmHg 42%
    17:00 +26°C° 0 mm 5 mps 751 mmHg 46%
    18:00 +25°C° 0 mm 5 mps 751 mmHg 50%
    19:00 +22°C° 0 mm 4 mps 751 mmHg 58%
    20:00 +20°C° 0 mm 3 mps 752 mmHg 66%
    21:00 +18°C° 0 mm 3 mps 752 mmHg 74%
    22:00 +18°C° 0 mm 2 mps 752 mmHg 74%
    23:00 +17°C° 0 mm 2 mps 752 mmHg 75%

    3 May, Wednesday

    Time Temperature Precipitation Wind Pressure Humidity
    00:00 +17°C° 0 mm 2 mps 751 mmHg 76%
    01:00 +17°C° 0 mm 2 mps 751 mmHg 75%
    02:00 +17°C° 0 mm 2 mps 751 mmHg 75%
    03:00 +17°C° 0 mm 2 mps 751 mmHg 75%
    04:00 +17°C° 0 mm 2 mps 750 mmHg 74%
    05:00 +18°C° 0 mm 2 mps 750 mmHg 74%
    06:00 +18°C° 0 mm 2 mps 750 mmHg 73%
    07:00 +21°C° 0 mm 2 mps 750 mmHg 63%
    08:00 +25°C° 0 mm 2 mps 751 mmHg 53%
    09:00 +28°C° 0 mm 2 mps 751 mmHg 43%
    10:00 +29°C° 0 mm 3 mps 750 mmHg 40%
    11:00 +30°C° 0 mm 4 mps 750 mmHg 37%
    12:00 +33°C° 0 mm 5 mps 750 mmHg 34%
    13:00 +32°C° 0 mm 5 mps 749 mmHg 34%
    14:00 +32°C° 0 mm 6 mps 749 mmHg 35%
    15:00 +32°C° 0 mm 6 mps 748 mmHg 36%
    16:00 +30°C° 0 mm 5 mps 748 mmHg 39%
    17:00 +28°C° 0 mm 5 mps 748 mmHg 43%
    18:00 +27°C° 0 mm 4 mps 748 mmHg 46%
    19:00 +25°C° 0 mm 3 mps 749 mmHg 54%
    20:00 +22°C° 0 mm 3 mps 749 mmHg 62%
    21:00 +20°C° 0 mm 2 mps 750 mmHg 70%
    22:00 +19°C° 0 mm 2 mps 750 mmHg 71%
    23:00 +19°C° 0 mm 2 mps 749 mmHg 73%

    4 May, Thursday

    Time Temperature Precipitation Wind Pressure Humidity
    00:00 +18°C° 0 mm 2 mps 749 mmHg 74%
    01:00 +18°C° 0 mm 2 mps 749 mmHg 76%
    02:00 +18°C° 0 mm 2 mps 748 mmHg 78%
    03:00 +17°C° 0 mm 2 mps 748 mmHg 81%
    04:00 +18°C° 0 mm 2 mps 748 mmHg 77%
    05:00 +19°C° 0 mm 2 mps 748 mmHg 74%
    06:00 +20°C° 0 mm 2 mps 748 mmHg 71%
    07:00 +22°C° 0 mm 3 mps 748 mmHg 61%
    08:00 +26°C° 0 mm 3 mps 748 mmHg 51%
    09:00 +29°C° 0 mm 3 mps 748 mmHg 42%
    10:00 +30°C° 0 mm 4 mps 748 mmHg 39%
    11:00 +33°C° 0 mm 4 mps 748 mmHg 35%
    12:00 +34°C° 0 mm 5 mps 748 mmHg 32%
    13:00 +34°C° 0 mm 5 mps 747 mmHg 33%
    14:00 +34°C° 0 mm 5 mps 747 mmHg 33%
    15:00 +34°C° 0 mm 6 mps 747 mmHg 33%
    16:00 +32°C° 0 mm 5 mps 747 mmHg 38%
    17:00 +30°C° 0 mm 5 mps 746 mmHg 42%
    18:00 +28°C° 0 mm 5 mps 746 mmHg 47%
    19:00 +27°C° 0 mm 4 mps 747 mmHg 53%
    20:00 +25°C° 0 mm 4 mps 747 mmHg 59%
    21:00 +22°C° 0 mm 3 mps 747 mmHg 66%
    22:00 +21°C° 0 mm 3 mps 747 mmHg 67%
    23:00 +21°C° 0 mm 3 mps 747 mmHg 69%
    Show more